Tacoma Narrows, WA
on Thursday, February 14, 2013

Thursday
Previous Day Next Day
Daily Summary
 ActualAverageRecord
Temperature
Mean Temperature °F °F  
Max Temperature 48°F 46°F 52°F (2014)
Min Temperature 41°F 36°F 30°F (2001)
Degree Days
Heating Degree Days 20    
Moisture
Dew Point 40°F   
Average Humidity 86    
Maximum Humidity 89    
Minimum Humidity 80    
Precipitation
Precipitation 0.01 in in in ()
Wind
Wind Speed 4 mph   
Max Wind Speed 9 mph   
Max Gust Speed mph   
Visibility 9 miles   
Events Rain   
Averages and records for this station are not official NWS values.
Key: T is trace of precipitation, MM is missing value
Source: NWS Daily Summary
Seasonal Weather Averages
Time(PST)TemperatureDew PointHumidity Pressure Visibility Wind DirectionWind SpeedGust SpeedPrecipitationEvents Conditions
12:40 AM 42.8°F 39.2°F 87% 30.51 in 10.0 miles SSW 6.9 mph - N/A   Overcast
12:53 AM 43.0°F 39.0°F 86% 30.52 in 10.0 miles SSW 6.9 mph - N/A   Overcast
1:53 AM 41.0°F 37.9°F 89% 30.53 in 10.0 miles SSW 4.6 mph - N/A   Mostly Cloudy
2:07 AM 41.0°F 37.4°F 87% 30.52 in 10.0 miles SSW 3.5 mph - N/A   Scattered Clouds
2:15 AM 41.0°F 37.4°F 87% 30.52 in 10.0 miles SSW 4.6 mph - N/A   Mostly Cloudy
2:28 AM 41.0°F 37.4°F 87% 30.52 in 10.0 miles South 5.8 mph - N/A   Mostly Cloudy
2:53 AM 42.1°F 37.9°F 85% 30.53 in 10.0 miles SSW 5.8 mph - N/A   Overcast
3:17 AM 41.0°F 37.4°F 87% 30.51 in 10.0 miles South 5.8 mph - N/A   Mostly Cloudy
3:53 AM 42.1°F 39.0°F 89% 30.51 in 10.0 miles SSE 4.6 mph - N/A   Overcast
4:53 AM 42.1°F 39.0°F 89% 30.51 in 10.0 miles South 6.9 mph - N/A   Overcast
5:53 AM 42.1°F 37.9°F 85% 30.53 in 10.0 miles South 8.1 mph - N/A   Overcast
6:53 AM 42.1°F 39.0°F 89% 30.53 in 10.0 miles South 8.1 mph - 0.01 in Rain Light Rain
7:39 AM 42.8°F 39.2°F 87% 30.52 in 10.0 miles South 9.2 mph - 0.00 in   Overcast
7:53 AM 42.1°F 39.0°F 89% 30.53 in 10.0 miles South 6.9 mph - 0.00 in   Overcast
8:53 AM 43.0°F 37.9°F 82% 30.55 in 10.0 miles South 4.6 mph - N/A   Overcast
9:53 AM 43.0°F 39.0°F 86% 30.55 in 6.0 miles Calm Calm - N/A   Overcast
10:31 AM 42.8°F 39.2°F 87% 30.54 in 6.0 miles Calm Calm - N/A   Overcast
10:44 AM 44.6°F 39.2°F 81% 30.54 in 4.0 miles South 4.6 mph - N/A   Overcast
10:53 AM 44.1°F 39.9°F 85% 30.56 in 3.0 miles South 4.6 mph - N/A   Overcast
11:53 AM 45.0°F 41.0°F 86% 30.55 in 4.0 miles South 4.6 mph - N/A   Overcast
12:14 PM 44.6°F 41.0°F 87% 30.54 in 10.0 miles South 4.6 mph - N/A   Overcast
12:53 PM 45.0°F 41.0°F 86% 30.55 in 3.0 miles Calm Calm - N/A   Overcast
1:53 PM 46.0°F 42.1°F 86% 30.56 in 4.0 miles Calm Calm - N/A   Overcast
2:53 PM 46.9°F 41.0°F 80% 30.55 in 5.0 miles Calm Calm - N/A   Haze
3:53 PM 48.0°F 42.1°F 80% 30.55 in 10.0 miles Calm Calm - N/A   Overcast
4:00 PM 48.2°F 42.8°F 82% 30.54 in 10.0 miles Calm Calm - N/A   Overcast
4:17 PM 46.4°F 42.8°F 87% 30.55 in 10.0 miles Calm Calm - N/A   Overcast
4:53 PM 46.9°F 42.1°F 83% 30.55 in 10.0 miles Calm Calm - N/A   Overcast
5:53 PM 46.0°F 43.0°F 89% 30.54 in 10.0 miles Calm Calm - N/A   Overcast
6:53 PM 46.0°F 43.0°F 89% 30.56 in 10.0 miles Calm Calm - N/A   Overcast
7:18 PM 46.4°F 42.8°F 87% 30.54 in 10.0 miles Calm Calm - N/A   Overcast
7:53 PM 46.0°F 43.0°F 89% 30.56 in 10.0 miles Calm Calm - N/A   Overcast
8:00 PM 46.4°F 42.8°F 87% 30.55 in 10.0 miles Calm Calm - N/A   Overcast
8:53 PM 46.0°F 43.0°F 89% 30.55 in 10.0 miles Calm Calm - N/A   Overcast
9:53 PM 46.0°F 43.0°F 89% 30.55 in 10.0 miles Calm Calm - N/A   Overcast
10:44 PM 46.4°F 42.8°F 87% 30.55 in 10.0 miles NW 3.5 mph - N/A   Overcast
10:53 PM 46.0°F 43.0°F 89% 30.55 in 10.0 miles Calm Calm - N/A   Overcast
11:53 PM 46.0°F 43.0°F 89% 30.55 in 9.0 miles NNW 3.5 mph - N/A   Overcast
Moon Phase
Feb. 14 Feb. 17 Feb. 25 Mar. 04 Mar. 11
Sunrise:07:16 AM (PST) Moon Rise:08:58 AM (PST)2/14
Sunset:05:33 PM (PST) Moon Set:11:07 PM (PST)2/14

Copyright © 2014 The Weather Underground, Inc.